Time,TemperatureF,DewpointF,PressureIn,WindDirection,WindDirectionDegrees,WindSpeedMPH,WindSpeedGustMPH,Humidity,HourlyPrecipIn,Conditions,Clouds,dailyrainin,SoftwareType,DateUTC
2013-01-08 00:04:00,44.7,37.9,30.21,ENE,71,0.0,3.0,77,0.00,,,0.00,Wunderground v.1.15,2013-01-08 06:04:00,
2013-01-08 00:10:00,44.6,37.8,30.21,East,79,2.0,2.0,77,0.00,,,0.00,Wunderground v.1.15,2013-01-08 06:10:00,
2013-01-08 00:16:00,44.6,37.8,30.21,East,79,1.0,2.0,77,0.00,,,0.00,Wunderground v.1.15,2013-01-08 06:16:00,
2013-01-08 00:22:00,44.5,38.1,30.20,ENE,74,1.0,1.0,78,0.00,,,0.00,Wunderground v.1.15,2013-01-08 06:22:00,
2013-01-08 00:28:00,44.4,38.0,30.20,East,100,1.0,1.0,78,0.00,,,0.00,Wunderground v.1.15,2013-01-08 06:28:00,
2013-01-08 00:33:00,44.4,38.0,30.20,ENE,75,0.0,1.0,78,0.00,,,0.00,Wunderground v.1.15,2013-01-08 06:33:00,
2013-01-08 00:38:00,44.4,38.0,30.20,ENE,70,1.0,2.0,78,0.00,,,0.00,Wunderground v.1.15,2013-01-08 06:38:00,
2013-01-08 00:44:00,44.6,38.2,30.20,ENE,72,0.0,1.0,78,0.00,,,0.00,Wunderground v.1.15,2013-01-08 06:44:00,
2013-01-08 00:49:00,44.7,38.3,30.19,ENE,72,0.0,1.0,78,0.00,,,0.00,Wunderground v.1.15,2013-01-08 06:49:00,
2013-01-08 00:55:00,44.6,38.5,30.19,ENE,72,0.0,0.0,79,0.00,,,0.00,Wunderground v.1.15,2013-01-08 06:55:00,
2013-01-08 01:00:00,44.7,38.6,30.19,ENE,72,0.0,0.0,79,0.00,,,0.00,Wunderground v.1.15,2013-01-08 07:00:00,
2013-01-08 01:05:00,44.7,38.9,30.19,ENE,72,0.0,0.0,80,0.00,,,0.00,Wunderground v.1.15,2013-01-08 07:05:00,
2013-01-08 01:11:00,44.8,38.7,30.19,NE,52,1.0,1.0,79,0.00,,,0.00,Wunderground v.1.15,2013-01-08 07:11:00,
2013-01-08 01:16:00,44.9,38.8,30.19,East,79,0.0,2.0,79,0.00,,,0.00,Wunderground v.1.15,2013-01-08 07:16:00,
2013-01-08 01:22:00,45.0,38.9,30.18,ENE,77,0.0,0.0,79,0.00,,,0.00,Wunderground v.1.15,2013-01-08 07:22:00,
2013-01-08 01:27:00,44.9,39.1,30.19,NE,46,0.0,0.0,80,0.00,,,0.00,Wunderground v.1.15,2013-01-08 07:27:00,
2013-01-08 01:33:00,44.9,39.1,30.19,NE,46,0.0,0.0,80,0.00,,,0.00,Wunderground v.1.15,2013-01-08 07:33:00,
2013-01-08 01:38:00,44.7,38.9,30.19,NE,46,2.0,2.0,80,0.00,,,0.00,Wunderground v.1.15,2013-01-08 07:38:00,
2013-01-08 01:43:00,44.7,39.2,30.19,ESE,120,0.0,0.0,81,0.00,,,0.00,Wunderground v.1.15,2013-01-08 07:43:00,
2013-01-08 01:49:00,44.5,39.0,30.19,ESE,120,0.0,0.0,81,0.00,,,0.00,Wunderground v.1.15,2013-01-08 07:49:00,
2013-01-08 01:54:00,44.6,39.1,30.18,ESE,120,0.0,0.0,81,0.00,,,0.00,Wunderground v.1.15,2013-01-08 07:54:00,
2013-01-08 02:00:00,44.6,39.4,30.18,ESE,120,0.0,0.0,82,0.00,,,0.00,Wunderground v.1.15,2013-01-08 08:00:00,
2013-01-08 02:05:00,44.6,39.4,30.18,ESE,120,0.0,0.0,82,0.00,,,0.00,Wunderground v.1.15,2013-01-08 08:05:00,
2013-01-08 02:10:00,44.6,39.1,30.18,ESE,120,0.0,0.0,81,0.00,,,0.00,Wunderground v.1.15,2013-01-08 08:10:00,
2013-01-08 02:15:00,44.5,39.7,30.18,ESE,120,0.0,0.0,83,0.00,,,0.00,Wunderground v.1.15,2013-01-08 08:15:00,
2013-01-08 02:20:00,44.3,39.5,30.18,East,99,0.0,1.0,83,0.00,,,0.00,Wunderground v.1.15,2013-01-08 08:20:00,
2013-01-08 02:25:00,44.2,39.4,30.18,ENE,76,1.0,1.0,83,0.00,,,0.00,Wunderground v.1.15,2013-01-08 08:25:00,
2013-01-08 02:30:00,44.3,39.5,30.17,North,8,0.0,1.0,83,0.00,,,0.00,Wunderground v.1.15,2013-01-08 08:30:00,
2013-01-08 02:35:00,44.3,39.8,30.17,ENE,65,1.0,1.0,84,0.00,,,0.00,Wunderground v.1.15,2013-01-08 08:35:00,
2013-01-08 02:40:00,44.4,39.9,30.17,East,82,0.0,1.0,84,0.00,,,0.00,Wunderground v.1.15,2013-01-08 08:40:00,
2013-01-08 02:45:00,44.5,40.0,30.17,East,82,1.0,1.0,84,0.00,,,0.00,Wunderground v.1.15,2013-01-08 08:45:00,
2013-01-08 02:50:00,44.8,40.3,30.17,ENE,74,2.0,3.0,84,0.00,,,0.00,Wunderground v.1.15,2013-01-08 08:50:00,
2013-01-08 02:55:00,45.0,40.5,30.16,East,79,2.0,4.0,84,0.00,,,0.00,Wunderground v.1.15,2013-01-08 08:55:00,
2013-01-08 03:00:00,45.0,40.8,30.17,ENE,57,3.0,4.0,85,0.00,,,0.00,Wunderground v.1.15,2013-01-08 09:00:00,
2013-01-08 03:05:00,44.9,40.7,30.17,East,89,2.0,4.0,85,0.00,,,0.00,Wunderground v.1.15,2013-01-08 09:05:00,
2013-01-08 03:10:00,44.8,40.9,30.17,East,101,1.0,1.0,86,0.00,,,0.00,Wunderground v.1.15,2013-01-08 09:10:00,
2013-01-08 03:15:00,44.7,41.1,30.17,East,83,0.0,3.0,87,0.00,,,0.00,Wunderground v.1.15,2013-01-08 09:15:00,
2013-01-08 03:21:00,44.7,41.1,30.17,ENE,64,2.0,3.0,87,0.00,,,0.00,Wunderground v.1.15,2013-01-08 09:21:00,
2013-01-08 03:26:00,44.6,41.3,30.16,ENE,58,3.0,4.0,88,0.00,,,0.00,Wunderground v.1.15,2013-01-08 09:26:00,
2013-01-08 03:31:00,44.5,41.2,30.16,NE,44,1.0,2.0,88,0.00,,,0.00,Wunderground v.1.15,2013-01-08 09:31:00,
2013-01-08 03:36:00,44.5,41.2,30.16,East,98,2.0,3.0,88,0.00,,,0.01,Wunderground v.1.15,2013-01-08 09:36:00,
2013-01-08 03:41:00,44.5,41.5,30.16,NNE,25,1.0,3.0,89,0.00,,,0.01,Wunderground v.1.15,2013-01-08 09:41:00,
2013-01-08 03:46:00,44.5,41.5,30.15,East,85,1.0,6.0,89,0.00,,,0.01,Wunderground v.1.15,2013-01-08 09:46:00,
2013-01-08 03:51:00,44.5,41.5,30.15,ENE,64,1.0,3.0,89,0.00,,,0.01,Wunderground v.1.15,2013-01-08 09:51:00,
2013-01-08 03:56:00,44.6,41.8,30.15,NE,55,3.0,4.0,90,0.00,,,0.01,Wunderground v.1.15,2013-01-08 09:56:00,
2013-01-08 04:01:00,44.8,42.0,30.15,ENE,67,0.0,4.0,90,0.00,,,0.01,Wunderground v.1.15,2013-01-08 10:01:00,
2013-01-08 04:06:00,44.9,41.9,30.15,ENE,76,2.0,4.0,89,0.00,,,0.01,Wunderground v.1.15,2013-01-08 10:06:00,
2013-01-08 04:11:00,44.9,41.9,30.15,ENE,63,2.0,2.0,89,0.00,,,0.01,Wunderground v.1.15,2013-01-08 10:11:00,
2013-01-08 04:16:00,45.0,42.0,30.15,NNE,27,1.0,4.0,89,0.00,,,0.01,Wunderground v.1.15,2013-01-08 10:16:00,
2013-01-08 04:21:00,45.1,42.1,30.15,ENE,67,2.0,3.0,89,0.00,,,0.01,Wunderground v.1.15,2013-01-08 10:21:00,
2013-01-08 04:26:00,45.1,42.1,30.14,NE,50,3.0,5.0,89,0.00,,,0.01,Wunderground v.1.15,2013-01-08 10:26:00,
2013-01-08 04:32:00,45.2,42.2,30.14,ENE,70,1.0,7.0,89,0.00,,,0.01,Wunderground v.1.15,2013-01-08 10:32:00,
2013-01-08 04:37:00,45.2,42.2,30.14,North,354,0.0,7.0,89,0.00,,,0.01,Wunderground v.1.15,2013-01-08 10:37:00,
2013-01-08 04:42:00,45.2,42.2,30.14,East,89,1.0,1.0,89,0.00,,,0.01,Wunderground v.1.15,2013-01-08 10:42:00,
2013-01-08 04:47:00,45.3,42.0,30.14,ENE,74,0.0,3.0,88,0.00,,,0.01,Wunderground v.1.15,2013-01-08 10:47:00,
2013-01-08 04:52:00,45.3,42.0,30.14,East,86,1.0,2.0,88,0.00,,,0.01,Wunderground v.1.15,2013-01-08 10:52:00,
2013-01-08 04:57:00,45.5,42.4,30.14,ENE,64,1.0,2.0,89,0.00,,,0.01,Wunderground v.1.15,2013-01-08 10:57:00,
2013-01-08 05:02:00,45.5,42.4,30.13,ESE,114,1.0,2.0,89,0.00,,,0.01,Wunderground v.1.15,2013-01-08 11:02:00,
2013-01-08 05:07:00,45.6,42.3,30.13,East,80,0.0,2.0,88,0.00,,,0.01,Wunderground v.1.15,2013-01-08 11:07:00,
2013-01-08 05:12:00,45.7,42.3,30.13,ENE,70,0.0,2.0,88,0.00,,,0.01,Wunderground v.1.15,2013-01-08 11:12:00,
2013-01-08 05:17:00,45.8,42.4,30.13,ENE,70,0.0,2.0,88,0.00,,,0.01,Wunderground v.1.15,2013-01-08 11:17:00,
2013-01-08 05:22:00,45.8,42.4,30.13,North,353,1.0,1.0,88,0.00,,,0.01,Wunderground v.1.15,2013-01-08 11:22:00,
2013-01-08 05:27:00,45.9,42.5,30.13,North,354,0.0,1.0,88,0.00,,,0.01,Wunderground v.1.15,2013-01-08 11:27:00,
2013-01-08 05:32:00,45.9,42.5,30.13,ENE,72,2.0,2.0,88,0.00,,,0.01,Wunderground v.1.15,2013-01-08 11:32:00,
2013-01-08 05:37:00,45.9,42.5,30.13,ENE,75,0.0,2.0,88,0.00,,,0.01,Wunderground v.1.15,2013-01-08 11:37:00,
2013-01-08 05:42:00,45.9,42.8,30.13,East,83,0.0,0.0,89,0.00,,,0.01,Wunderground v.1.15,2013-01-08 11:42:00,
2013-01-08 05:47:00,45.9,42.8,30.13,NE,43,0.0,3.0,89,0.00,,,0.01,Wunderground v.1.15,2013-01-08 11:47:00,
2013-01-08 05:52:00,45.9,42.8,30.13,East,98,1.0,1.0,89,0.00,,,0.01,Wunderground v.1.15,2013-01-08 11:52:00,
2013-01-08 05:57:00,45.8,43.0,30.12,East,99,0.0,2.0,90,0.00,,,0.01,Wunderground v.1.15,2013-01-08 11:57:00,
2013-01-08 06:02:00,45.9,43.1,30.12,NE,41,0.0,3.0,90,0.00,,,0.01,Wunderground v.1.15,2013-01-08 12:02:00,
2013-01-08 06:07:00,45.9,43.1,30.11,ENE,69,2.0,3.0,90,0.00,,,0.01,Wunderground v.1.15,2013-01-08 12:07:00,
2013-01-08 06:12:00,45.8,43.3,30.12,NE,55,1.0,1.0,91,0.00,,,0.01,Wunderground v.1.15,2013-01-08 12:12:00,
2013-01-08 06:17:00,45.8,43.3,30.13,NNW,338,0.0,1.0,91,0.00,,,0.01,Wunderground v.1.15,2013-01-08 12:17:00,
2013-01-08 06:22:00,45.8,43.3,30.13,NNW,339,0.0,0.0,91,0.00,,,0.01,Wunderground v.1.15,2013-01-08 12:22:00,
2013-01-08 06:27:00,45.9,43.4,30.13,North,352,0.0,0.0,91,0.00,,,0.01,Wunderground v.1.15,2013-01-08 12:27:00,
2013-01-08 06:32:00,45.8,43.3,30.13,ENE,72,0.0,0.0,91,0.00,,,0.01,Wunderground v.1.15,2013-01-08 12:32:00,
2013-01-08 06:37:00,45.8,43.6,30.12,NE,41,0.0,1.0,92,0.00,,,0.01,Wunderground v.1.15,2013-01-08 12:37:00,
2013-01-08 06:42:00,45.8,43.6,30.13,East,86,0.0,2.0,92,0.00,,,0.01,Wunderground v.1.15,2013-01-08 12:42:00,
2013-01-08 06:47:00,45.9,43.7,30.13,East,96,0.0,2.0,92,0.00,,,0.01,Wunderground v.1.15,2013-01-08 12:47:00,
2013-01-08 06:52:00,45.9,43.7,30.14,East,91,0.0,0.0,92,0.00,,,0.01,Wunderground v.1.15,2013-01-08 12:52:00,
2013-01-08 06:57:00,45.9,43.7,30.14,East,91,0.0,0.0,92,0.00,,,0.01,Wunderground v.1.15,2013-01-08 12:57:00,
2013-01-08 07:02:00,45.9,43.7,30.14,East,92,0.0,0.0,92,0.00,,,0.01,Wunderground v.1.15,2013-01-08 13:02:00,
2013-01-08 07:07:00,45.9,43.7,30.14,North,9,0.0,0.0,92,0.00,,,0.01,Wunderground v.1.15,2013-01-08 13:07:00,
2013-01-08 07:13:00,46.0,43.8,30.14,North,11,0.0,0.0,92,0.00,,,0.01,Wunderground v.1.15,2013-01-08 13:13:00,
2013-01-08 07:18:00,46.0,43.8,30.14,North,11,0.0,0.0,92,0.00,,,0.01,Wunderground v.1.15,2013-01-08 13:18:00,
2013-01-08 07:23:00,46.0,43.8,30.14,North,11,0.0,0.0,92,0.00,,,0.01,Wunderground v.1.15,2013-01-08 13:23:00,
2013-01-08 07:28:00,46.0,43.8,30.14,North,10,0.0,0.0,92,0.00,,,0.01,Wunderground v.1.15,2013-01-08 13:28:00,
2013-01-08 07:33:00,46.0,43.8,30.14,NE,46,0.0,0.0,92,0.00,,,0.01,Wunderground v.1.15,2013-01-08 13:33:00,
2013-01-08 07:38:00,46.1,43.9,30.14,ENE,58,0.0,0.0,92,0.00,,,0.01,Wunderground v.1.15,2013-01-08 13:38:00,
2013-01-08 07:43:00,46.1,43.9,30.14,ENE,67,0.0,2.0,92,0.00,,,0.01,Wunderground v.1.15,2013-01-08 13:43:00,
2013-01-08 07:48:00,46.2,44.3,30.14,NE,52,0.0,3.0,93,0.00,,,0.01,Wunderground v.1.15,2013-01-08 13:48:00,
2013-01-08 07:52:00,46.2,44.3,30.14,North,9,2.0,2.0,93,0.00,,,0.01,Wunderground v.1.15,2013-01-08 13:52:00,
2013-01-08 07:58:00,46.2,44.3,30.14,ENE,68,1.0,2.0,93,0.00,,,0.01,Wunderground v.1.15,2013-01-08 13:58:00,
2013-01-08 08:03:00,46.2,44.3,30.14,NNW,328,0.0,0.0,93,0.00,,,0.01,Wunderground v.1.15,2013-01-08 14:03:00,
2013-01-08 08:08:00,46.3,44.4,30.15,NNW,328,0.0,1.0,93,0.00,,,0.01,Wunderground v.1.15,2013-01-08 14:08:00,
2013-01-08 08:13:00,46.3,44.4,30.15,NNW,337,0.0,1.0,93,0.00,,,0.01,Wunderground v.1.15,2013-01-08 14:13:00,
2013-01-08 08:18:00,46.3,44.4,30.15,NNW,337,0.0,1.0,93,0.00,,,0.01,Wunderground v.1.15,2013-01-08 14:18:00,
2013-01-08 08:23:00,46.4,44.5,30.15,NE,36,0.0,0.0,93,0.00,,,0.01,Wunderground v.1.15,2013-01-08 14:23:00,
2013-01-08 08:28:00,46.5,44.9,30.15,NE,46,0.0,0.0,94,0.00,,,0.01,Wunderground v.1.15,2013-01-08 14:28:00,
2013-01-08 08:33:00,46.6,45.0,30.14,NE,44,0.0,0.0,94,0.00,,,0.01,Wunderground v.1.15,2013-01-08 14:33:00,
2013-01-08 08:38:00,46.6,45.0,30.15,ENE,67,0.0,1.0,94,0.00,,,0.01,Wunderground v.1.15,2013-01-08 14:38:00,
2013-01-08 08:43:00,46.7,45.1,30.15,North,353,0.0,2.0,94,0.00,,,0.01,Wunderground v.1.15,2013-01-08 14:43:00,
2013-01-08 08:48:00,46.8,45.2,30.15,North,1,1.0,2.0,94,0.00,,,0.01,Wunderground v.1.15,2013-01-08 14:48:00,
2013-01-08 08:53:00,46.9,45.3,30.15,NNW,330,0.0,2.0,94,0.00,,,0.01,Wunderground v.1.15,2013-01-08 14:53:00,
2013-01-08 08:58:00,46.9,45.3,30.15,NNE,33,0.0,3.0,94,0.00,,,0.01,Wunderground v.1.15,2013-01-08 14:58:00,
2013-01-08 09:03:00,46.9,45.3,30.15,NE,53,0.0,2.0,94,0.00,,,0.02,Wunderground v.1.15,2013-01-08 15:03:00,
2013-01-08 09:08:00,47.0,45.4,30.15,ENE,58,0.0,2.0,94,0.00,,,0.02,Wunderground v.1.15,2013-01-08 15:08:00,
2013-01-08 09:13:00,47.0,45.4,30.15,NE,55,1.0,2.0,94,0.00,,,0.02,Wunderground v.1.15,2013-01-08 15:13:00,
2013-01-08 09:19:00,47.1,45.5,30.14,NE,41,2.0,4.0,94,0.04,,,0.03,Wunderground v.1.15,2013-01-08 15:19:00,
2013-01-08 09:24:00,47.1,45.7,30.13,ENE,77,0.0,6.0,95,0.04,,,0.03,Wunderground v.1.15,2013-01-08 15:24:00,
2013-01-08 09:29:00,47.2,45.8,30.13,NNE,19,3.0,6.0,95,0.04,,,0.03,Wunderground v.1.15,2013-01-08 15:29:00,
2013-01-08 09:34:00,47.3,45.9,30.13,East,79,3.0,4.0,95,0.00,,,0.03,Wunderground v.1.15,2013-01-08 15:34:00,
2013-01-08 09:39:00,47.4,46.0,30.14,NNE,27,3.0,4.0,95,0.00,,,0.04,Wunderground v.1.15,2013-01-08 15:39:00,
2013-01-08 09:44:00,47.5,46.1,30.14,NNE,33,1.0,1.0,95,0.00,,,0.04,Wunderground v.1.15,2013-01-08 15:44:00,
2013-01-08 09:49:00,47.5,46.1,30.15,East,99,1.0,2.0,95,0.00,,,0.04,Wunderground v.1.15,2013-01-08 15:49:00,
2013-01-08 09:54:00,47.6,46.2,30.16,ENE,77,1.0,4.0,95,0.04,,,0.05,Wunderground v.1.15,2013-01-08 15:54:00,
2013-01-08 09:59:00,47.6,46.2,30.14,NE,39,1.0,6.0,95,1.92,,,0.11,Wunderground v.1.15,2013-01-08 15:59:00,
2013-01-08 10:04:00,47.6,46.2,30.14,NNW,339,0.0,3.0,95,0.30,,,0.15,Wunderground v.1.15,2013-01-08 16:04:00,
2013-01-08 10:10:00,47.6,46.2,30.14,NE,46,0.0,1.0,95,1.07,,,0.20,Wunderground v.1.15,2013-01-08 16:10:00,
2013-01-08 10:15:00,47.7,46.3,30.16,SSE,153,1.0,2.0,95,0.47,,,0.27,Wunderground v.1.15,2013-01-08 16:15:00,
2013-01-08 10:20:00,47.7,46.3,30.17,SSE,157,1.0,1.0,95,0.87,,,0.35,Wunderground v.1.15,2013-01-08 16:20:00,
2013-01-08 10:25:00,47.7,46.3,30.15,ENE,70,1.0,2.0,95,0.52,,,0.39,Wunderground v.1.15,2013-01-08 16:25:00,
2013-01-08 10:30:00,47.9,46.5,30.15,NE,55,0.0,1.0,95,0.12,,,0.40,Wunderground v.1.15,2013-01-08 16:30:00,
2013-01-08 10:35:00,47.9,46.5,30.16,West,270,0.0,1.0,95,0.53,,,0.42,Wunderground v.1.15,2013-01-08 16:35:00,
2013-01-08 10:40:00,48.0,46.6,30.15,North,351,1.0,2.0,95,0.16,,,0.43,Wunderground v.1.15,2013-01-08 16:40:00,
2013-01-08 10:45:00,48.4,47.3,30.13,East,88,2.0,7.0,96,0.08,,,0.43,Wunderground v.1.15,2013-01-08 16:45:00,
2013-01-08 10:50:00,48.6,47.5,30.14,ESE,102,0.0,2.0,96,0.05,,,0.43,Wunderground v.1.15,2013-01-08 16:50:00,
2013-01-08 10:55:00,48.8,47.7,30.13,ENE,58,2.0,5.0,96,0.00,,,0.43,Wunderground v.1.15,2013-01-08 16:55:00,
2013-01-08 11:00:00,48.9,47.8,30.13,ENE,61,2.0,2.0,96,0.00,,,0.43,Wunderground v.1.15,2013-01-08 17:00:00,
2013-01-08 11:05:00,49.0,47.9,30.13,ENE,58,1.0,6.0,96,0.00,,,0.43,Wunderground v.1.15,2013-01-08 17:05:00,
2013-01-08 11:10:00,49.1,48.0,30.12,ENE,72,3.0,3.0,96,0.00,,,0.43,Wunderground v.1.15,2013-01-08 17:10:00,
2013-01-08 11:15:00,49.3,48.2,30.12,NE,50,0.0,3.0,96,0.00,,,0.43,Wunderground v.1.15,2013-01-08 17:15:00,
2013-01-08 11:20:00,49.3,48.2,30.12,NE,53,0.0,2.0,96,0.00,,,0.43,Wunderground v.1.15,2013-01-08 17:20:00,
2013-01-08 11:25:00,49.3,48.2,30.11,NNE,18,1.0,4.0,96,0.00,,,0.43,Wunderground v.1.15,2013-01-08 17:25:00,
2013-01-08 11:30:00,49.4,48.3,30.11,NNE,12,2.0,2.0,96,0.00,,,0.43,Wunderground v.1.15,2013-01-08 17:30:00,
2013-01-08 11:35:00,49.5,48.4,30.11,ESE,108,4.0,4.0,96,0.00,,,0.43,Wunderground v.1.15,2013-01-08 17:35:00,
2013-01-08 11:40:00,49.7,48.6,30.11,NE,46,2.0,2.0,96,0.00,,,0.43,Wunderground v.1.15,2013-01-08 17:40:00,
2013-01-08 11:45:00,49.8,48.7,30.11,East,79,1.0,4.0,96,0.00,,,0.44,Wunderground v.1.15,2013-01-08 17:45:00,
2013-01-08 11:50:00,49.9,48.8,30.10,East,79,3.0,3.0,96,0.00,,,0.44,Wunderground v.1.15,2013-01-08 17:50:00,
2013-01-08 11:55:00,49.9,48.8,30.09,ENE,64,1.0,6.0,96,0.00,,,0.44,Wunderground v.1.15,2013-01-08 17:55:00,
2013-01-08 12:01:00,50.0,48.9,30.09,East,86,0.0,2.0,96,0.00,,,0.44,Wunderground v.1.15,2013-01-08 18:01:00,
2013-01-08 12:06:00,50.1,49.0,30.08,ENE,69,2.0,3.0,96,0.00,,,0.44,Wunderground v.1.15,2013-01-08 18:06:00,
2013-01-08 12:11:00,50.2,49.1,30.08,East,81,2.0,5.0,96,0.00,,,0.44,Wunderground v.1.15,2013-01-08 18:11:00,
2013-01-08 12:16:00,50.3,49.2,30.07,NNW,341,2.0,6.0,96,0.00,,,0.44,Wunderground v.1.15,2013-01-08 18:16:00,
2013-01-08 12:21:00,50.4,49.3,30.08,East,82,1.0,3.0,96,0.00,,,0.44,Wunderground v.1.15,2013-01-08 18:21:00,
2013-01-08 12:26:00,50.5,49.4,30.07,East,92,2.0,4.0,96,0.00,,,0.44,Wunderground v.1.15,2013-01-08 18:26:00,
2013-01-08 12:31:00,50.7,49.6,30.06,East,99,1.0,3.0,96,0.00,,,0.44,Wunderground v.1.15,2013-01-08 18:31:00,
2013-01-08 12:36:00,50.9,49.8,30.06,ENE,77,0.0,3.0,96,0.00,,,0.44,Wunderground v.1.15,2013-01-08 18:36:00,
2013-01-08 12:41:00,51.0,49.9,30.06,ENE,61,0.0,2.0,96,0.00,,,0.44,Wunderground v.1.15,2013-01-08 18:41:00,
2013-01-08 12:46:00,51.2,50.1,30.05,ENE,70,1.0,3.0,96,0.00,,,0.44,Wunderground v.1.15,2013-01-08 18:46:00,
2013-01-08 12:51:00,51.3,50.2,30.04,East,91,0.0,2.0,96,0.00,,,0.44,Wunderground v.1.15,2013-01-08 18:51:00,
2013-01-08 12:56:00,51.4,50.3,30.04,East,96,0.0,2.0,96,0.00,,,0.44,Wunderground v.1.15,2013-01-08 18:56:00,
2013-01-08 13:01:00,51.5,50.4,30.03,ENE,72,1.0,3.0,96,0.00,,,0.44,Wunderground v.1.15,2013-01-08 19:01:00,
2013-01-08 13:06:00,51.6,50.5,30.03,East,93,0.0,3.0,96,0.00,,,0.44,Wunderground v.1.15,2013-01-08 19:06:00,
2013-01-08 13:11:00,51.8,50.7,30.03,North,9,0.0,3.0,96,0.00,,,0.44,Wunderground v.1.15,2013-01-08 19:11:00,
2013-01-08 13:21:00,51.9,50.8,30.03,NE,53,3.0,3.0,96,0.75,,,0.47,Wunderground v.1.15,2013-01-08 19:21:00,
2013-01-08 13:26:00,52.1,51.0,30.01,East,96,2.0,4.0,96,0.81,,,0.57,Wunderground v.1.15,2013-01-08 19:26:00,
2013-01-08 13:31:00,52.2,51.1,30.01,ENE,70,1.0,3.0,96,0.33,,,0.61,Wunderground v.1.15,2013-01-08 19:31:00,
2013-01-08 13:36:00,52.4,51.3,30.02,ESE,102,0.0,3.0,96,0.12,,,0.62,Wunderground v.1.15,2013-01-08 19:36:00,
2013-01-08 13:41:00,52.5,51.7,30.02,SSW,210,0.0,0.0,97,0.06,,,0.62,Wunderground v.1.15,2013-01-08 19:41:00,
2013-01-08 13:46:00,52.5,51.7,30.04,SW,226,0.0,0.0,97,0.04,,,0.62,Wunderground v.1.15,2013-01-08 19:46:00,
2013-01-08 13:51:00,52.8,52.0,30.04,SSW,213,0.0,3.0,97,0.00,,,0.62,Wunderground v.1.15,2013-01-08 19:51:00,
2013-01-08 13:56:00,52.8,52.0,30.04,NE,55,2.0,3.0,97,0.00,,,0.62,Wunderground v.1.15,2013-01-08 19:56:00,
2013-01-08 14:01:00,53.0,52.2,30.03,WNW,293,1.0,1.0,97,0.00,,,0.62,Wunderground v.1.15,2013-01-08 20:01:00,
2013-01-08 14:06:00,53.2,52.4,30.04,WNW,291,0.0,1.0,97,0.00,,,0.62,Wunderground v.1.15,2013-01-08 20:06:00,
2013-01-08 14:11:00,53.2,52.4,30.03,NE,50,2.0,2.0,97,0.00,,,0.62,Wunderground v.1.15,2013-01-08 20:11:00,
2013-01-08 14:16:00,53.4,52.6,30.02,ENE,73,2.0,4.0,97,0.00,,,0.62,Wunderground v.1.15,2013-01-08 20:16:00,
2013-01-08 14:21:00,54.0,53.2,30.01,ENE,72,4.0,7.0,97,0.00,,,0.63,Wunderground v.1.15,2013-01-08 20:21:00,
2013-01-08 14:26:00,54.5,53.7,30.00,ENE,72,3.0,9.0,97,0.00,,,0.63,Wunderground v.1.15,2013-01-08 20:26:00,
2013-01-08 14:31:00,54.9,54.1,30.00,ESE,120,4.0,7.0,97,0.00,,,0.63,Wunderground v.1.15,2013-01-08 20:31:00,
2013-01-08 14:36:00,55.2,54.4,30.01,ENE,64,3.0,9.0,97,0.00,,,0.63,Wunderground v.1.15,2013-01-08 20:36:00,
2013-01-08 14:41:00,55.4,54.6,30.01,ESE,112,5.0,11.0,97,0.00,,,0.63,Wunderground v.1.15,2013-01-08 20:41:00,
2013-01-08 14:46:00,55.7,54.9,30.00,East,79,2.0,11.0,97,0.00,,,0.63,Wunderground v.1.15,2013-01-08 20:46:00,
2013-01-08 14:51:00,55.9,55.1,30.01,ESE,105,4.0,9.0,97,0.00,,,0.64,Wunderground v.1.15,2013-01-08 20:51:00,
2013-01-08 14:56:00,56.1,55.3,30.01,East,79,0.0,9.0,97,0.00,,,0.64,Wunderground v.1.15,2013-01-08 20:56:00,
2013-01-08 15:01:00,56.2,55.4,30.01,East,84,4.0,6.0,97,0.00,,,0.64,Wunderground v.1.15,2013-01-08 21:01:00,
2013-01-08 15:06:00,56.3,55.5,30.01,ENE,70,5.0,7.0,97,0.00,,,0.64,Wunderground v.1.15,2013-01-08 21:06:00,
2013-01-08 15:11:00,56.4,55.6,30.01,ENE,78,4.0,7.0,97,0.00,,,0.64,Wunderground v.1.15,2013-01-08 21:11:00,
2013-01-08 15:16:00,56.5,55.7,30.03,ENE,72,7.0,12.0,97,0.00,,,0.64,Wunderground v.1.15,2013-01-08 21:16:00,
2013-01-08 15:21:00,56.6,55.8,30.02,East,90,2.0,12.0,97,0.00,,,0.65,Wunderground v.1.15,2013-01-08 21:21:00,
2013-01-08 15:26:00,56.8,56.0,30.02,ENE,75,8.0,12.0,97,0.00,,,0.65,Wunderground v.1.15,2013-01-08 21:26:00,
2013-01-08 15:31:00,56.9,56.1,30.03,West,276,1.0,5.0,97,0.00,,,0.65,Wunderground v.1.15,2013-01-08 21:31:00,
2013-01-08 15:36:00,57.0,56.2,30.05,NW,314,2.0,5.0,97,0.00,,,0.65,Wunderground v.1.15,2013-01-08 21:36:00,
2013-01-08 15:42:00,57.1,56.3,30.03,NNE,33,0.0,2.0,97,0.00,,,0.66,Wunderground v.1.15,2013-01-08 21:42:00,
2013-01-08 15:47:00,57.1,56.3,30.01,NE,41,0.0,3.0,97,0.00,,,0.66,Wunderground v.1.15,2013-01-08 21:47:00,
2013-01-08 15:52:00,57.2,56.4,30.01,NE,44,0.0,3.0,97,0.00,,,0.66,Wunderground v.1.15,2013-01-08 21:52:00,
2013-01-08 15:57:00,57.2,56.4,30.00,NE,53,3.0,3.0,97,0.00,,,0.66,Wunderground v.1.15,2013-01-08 21:57:00,
2013-01-08 16:02:00,57.2,56.4,30.01,ESE,109,2.0,2.0,97,0.00,,,0.66,Wunderground v.1.15,2013-01-08 22:02:00,
2013-01-08 16:07:00,57.3,56.5,30.02,East,82,2.0,7.0,97,0.00,,,0.66,Wunderground v.1.15,2013-01-08 22:07:00,
2013-01-08 16:12:00,57.5,56.7,30.01,East,89,5.0,7.0,97,0.00,,,0.67,Wunderground v.1.15,2013-01-08 22:12:00,
2013-01-08 16:17:00,57.7,56.9,29.99,ESE,108,7.0,10.0,97,0.00,,,0.67,Wunderground v.1.15,2013-01-08 22:17:00,
2013-01-08 16:22:00,57.9,57.1,30.00,East,96,5.0,8.0,97,0.00,,,0.67,Wunderground v.1.15,2013-01-08 22:22:00,
2013-01-08 16:27:00,58.0,57.2,30.01,ENE,70,6.0,10.0,97,0.00,,,0.67,Wunderground v.1.15,2013-01-08 22:27:00,
2013-01-08 16:32:00,58.2,57.4,30.01,ESE,110,8.0,10.0,97,0.00,,,0.68,Wunderground v.1.15,2013-01-08 22:32:00,
2013-01-08 16:37:00,58.2,57.4,30.00,ESE,115,7.0,10.0,97,0.00,,,0.68,Wunderground v.1.15,2013-01-08 22:37:00,
2013-01-08 16:42:00,58.3,57.5,30.00,East,89,5.0,9.0,97,0.00,,,0.68,Wunderground v.1.15,2013-01-08 22:42:00,
2013-01-08 16:47:00,58.3,57.5,30.00,ENE,67,4.0,9.0,97,0.00,,,0.68,Wunderground v.1.15,2013-01-08 22:47:00,
2013-01-08 16:52:00,58.3,57.5,30.00,ENE,76,2.0,7.0,97,0.00,,,0.68,Wunderground v.1.15,2013-01-08 22:52:00,
2013-01-08 16:57:00,58.3,57.5,30.01,East,84,4.0,8.0,97,0.00,,,0.68,Wunderground v.1.15,2013-01-08 22:57:00,
2013-01-08 17:02:00,58.3,57.5,30.01,East,95,6.0,10.0,97,0.00,,,0.68,Wunderground v.1.15,2013-01-08 23:02:00,
2013-01-08 17:07:00,58.2,57.4,30.01,ENE,71,5.0,10.0,97,0.00,,,0.68,Wunderground v.1.15,2013-01-08 23:07:00,
2013-01-08 17:12:00,58.3,57.5,30.01,ENE,72,5.0,12.0,97,0.00,,,0.68,Wunderground v.1.15,2013-01-08 23:12:00,
2013-01-08 17:17:00,58.2,57.4,30.01,ENE,67,3.0,12.0,97,0.00,,,0.68,Wunderground v.1.15,2013-01-08 23:17:00,
2013-01-08 17:22:00,58.3,57.5,30.01,East,79,3.0,7.0,97,0.00,,,0.68,Wunderground v.1.15,2013-01-08 23:22:00,
2013-01-08 17:27:00,58.2,57.4,30.02,ENE,63,3.0,8.0,97,0.00,,,0.68,Wunderground v.1.15,2013-01-08 23:27:00,
2013-01-08 17:32:00,58.2,57.4,30.02,East,91,4.0,6.0,97,0.00,,,0.68,Wunderground v.1.15,2013-01-08 23:32:00,
2013-01-08 17:37:00,58.3,57.5,30.02,East,87,4.0,8.0,97,0.00,,,0.68,Wunderground v.1.15,2013-01-08 23:37:00,
2013-01-08 17:42:00,58.3,57.5,30.02,ENE,74,6.0,7.0,97,0.00,,,0.68,Wunderground v.1.15,2013-01-08 23:42:00,
2013-01-08 17:48:00,58.2,57.4,30.03,NE,55,5.0,8.0,97,0.00,,,0.68,Wunderground v.1.15,2013-01-08 23:48:00,
2013-01-08 17:53:00,58.3,57.5,30.03,NE,50,1.0,7.0,97,0.00,,,0.68,Wunderground v.1.15,2013-01-08 23:53:00,
2013-01-08 17:58:00,58.2,57.4,30.03,East,96,1.0,7.0,97,0.00,,,0.68,Wunderground v.1.15,2013-01-08 23:58:00,
2013-01-08 18:03:00,58.3,57.5,30.04,East,94,2.0,7.0,97,0.00,,,0.68,Wunderground v.1.15,2013-01-09 00:03:00,
2013-01-08 18:08:00,58.2,57.4,30.03,NNW,345,4.0,7.0,97,0.00,,,0.69,Wunderground v.1.15,2013-01-09 00:08:00,
2013-01-08 18:13:00,58.1,57.3,30.03,NE,47,5.0,6.0,97,0.00,,,0.69,Wunderground v.1.15,2013-01-09 00:13:00,
2013-01-08 18:18:00,58.1,57.3,30.02,ENE,76,2.0,7.0,97,0.00,,,0.69,Wunderground v.1.15,2013-01-09 00:18:00,
2013-01-08 18:23:00,58.0,57.2,30.02,East,82,3.0,6.0,97,0.00,,,0.69,Wunderground v.1.15,2013-01-09 00:23:00,
2013-01-08 18:28:00,58.0,57.2,30.01,ENE,64,3.0,10.0,97,0.00,,,0.69,Wunderground v.1.15,2013-01-09 00:28:00,
2013-01-08 18:33:00,58.0,57.2,30.02,NE,50,0.0,6.0,97,0.00,,,0.69,Wunderground v.1.15,2013-01-09 00:33:00,
2013-01-08 18:38:00,58.0,57.2,30.02,NE,47,3.0,6.0,97,0.00,,,0.69,Wunderground v.1.15,2013-01-09 00:38:00,
2013-01-08 18:43:00,57.9,57.1,30.02,North,4,0.0,3.0,97,0.00,,,0.69,Wunderground v.1.15,2013-01-09 00:43:00,
2013-01-08 18:48:00,57.9,57.1,30.02,East,84,0.0,3.0,97,0.00,,,0.69,Wunderground v.1.15,2013-01-09 00:48:00,
2013-01-08 18:53:00,57.9,57.1,30.03,ENE,73,0.0,3.0,97,0.00,,,0.69,Wunderground v.1.15,2013-01-09 00:53:00,
2013-01-08 18:58:00,57.9,57.1,30.03,ENE,70,0.0,3.0,97,0.00,,,0.69,Wunderground v.1.15,2013-01-09 00:58:00,
2013-01-08 19:03:00,57.9,57.1,30.03,NE,55,2.0,3.0,97,0.00,,,0.69,Wunderground v.1.15,2013-01-09 01:03:00,
2013-01-08 19:08:00,57.9,57.1,30.03,ESE,115,1.0,4.0,97,0.00,,,0.69,Wunderground v.1.15,2013-01-09 01:08:00,
2013-01-08 19:13:00,57.9,57.1,30.04,ESE,103,1.0,3.0,97,0.00,,,0.69,Wunderground v.1.15,2013-01-09 01:13:00,
2013-01-08 19:19:00,57.9,57.1,30.04,ENE,72,3.0,3.0,97,0.00,,,0.69,Wunderground v.1.15,2013-01-09 01:19:00,
2013-01-08 19:24:00,57.9,57.1,30.04,NE,40,1.0,4.0,97,0.00,,,0.69,Wunderground v.1.15,2013-01-09 01:24:00,
2013-01-08 19:29:00,57.9,57.1,30.04,East,81,0.0,5.0,97,0.00,,,0.69,Wunderground v.1.15,2013-01-09 01:29:00,
2013-01-08 19:34:00,57.9,57.1,30.04,ENE,64,3.0,4.0,97,0.00,,,0.69,Wunderground v.1.15,2013-01-09 01:34:00,
2013-01-08 19:39:00,57.9,57.1,30.04,NE,47,1.0,4.0,97,0.00,,,0.69,Wunderground v.1.15,2013-01-09 01:39:00,
2013-01-08 19:44:00,57.9,57.1,30.04,ENE,72,1.0,2.0,97,0.00,,,0.69,Wunderground v.1.15,2013-01-09 01:44:00,
2013-01-08 19:49:00,57.9,57.1,30.04,NE,55,0.0,3.0,97,0.00,,,0.69,Wunderground v.1.15,2013-01-09 01:49:00,
2013-01-08 19:54:00,57.9,57.1,30.04,ENE,58,0.0,4.0,97,0.00,,,0.69,Wunderground v.1.15,2013-01-09 01:54:00,
2013-01-08 19:59:00,57.9,57.1,30.05,NE,49,0.0,4.0,97,0.00,,,0.69,Wunderground v.1.15,2013-01-09 01:59:00,
2013-01-08 20:04:00,58.0,57.2,30.05,ENE,60,0.0,2.0,97,0.00,,,0.69,Wunderground v.1.15,2013-01-09 02:04:00,
2013-01-08 20:09:00,57.9,57.1,30.05,NE,53,0.0,2.0,97,0.00,,,0.70,Wunderground v.1.15,2013-01-09 02:09:00,
2013-01-08 20:14:00,57.9,57.1,30.05,NE,48,0.0,2.0,97,0.00,,,0.00,Wunderground v.1.15,2013-01-09 02:14:00,
2013-01-08 20:19:00,57.9,57.1,30.05,ENE,72,1.0,2.0,97,0.00,,,0.00,Wunderground v.1.15,2013-01-09 02:19:00,
2013-01-08 20:24:00,57.9,57.1,30.04,ENE,58,0.0,1.0,97,0.00,,,0.00,Wunderground v.1.15,2013-01-09 02:24:00,
2013-01-08 20:29:00,57.9,57.1,30.05,East,86,0.0,3.0,97,0.00,,,0.00,Wunderground v.1.15,2013-01-09 02:29:00,
2013-01-08 20:34:00,57.8,57.0,30.05,East,84,0.0,1.0,97,0.00,,,0.00,Wunderground v.1.15,2013-01-09 02:34:00,
2013-01-08 20:39:00,57.9,57.1,30.05,ENE,67,1.0,3.0,97,0.00,,,0.00,Wunderground v.1.15,2013-01-09 02:39:00,
2013-01-08 20:45:00,58.0,57.2,30.06,North,360,1.0,3.0,97,0.00,,,0.00,Wunderground v.1.15,2013-01-09 02:45:00,
2013-01-08 20:50:00,58.1,57.3,30.06,NE,53,4.0,4.0,97,0.00,,,0.00,Wunderground v.1.15,2013-01-09 02:50:00,
2013-01-08 20:55:00,58.2,57.4,30.06,East,86,1.0,5.0,97,0.00,,,0.00,Wunderground v.1.15,2013-01-09 02:55:00,
2013-01-08 21:00:00,58.2,57.4,30.06,ENE,61,2.0,2.0,97,0.00,,,0.00,Wunderground v.1.15,2013-01-09 03:00:00,
2013-01-08 21:05:00,58.3,57.5,30.06,ENE,61,2.0,7.0,97,0.00,,,0.00,Wunderground v.1.15,2013-01-09 03:05:00,
2013-01-08 21:10:00,58.3,57.5,30.06,ENE,76,2.0,4.0,97,0.00,,,0.00,Wunderground v.1.15,2013-01-09 03:10:00,
2013-01-08 21:15:00,58.4,57.6,30.06,East,95,6.0,10.0,97,0.00,,,0.00,Wunderground v.1.15,2013-01-09 03:15:00,
2013-01-08 21:20:00,58.4,57.6,30.06,East,92,1.0,3.0,97,0.00,,,0.00,Wunderground v.1.15,2013-01-09 03:20:00,
2013-01-08 21:25:00,58.5,57.7,30.06,ENE,60,4.0,8.0,97,0.00,,,0.00,Wunderground v.1.15,2013-01-09 03:25:00,
2013-01-08 21:30:00,58.5,57.7,30.07,ENE,70,3.0,8.0,97,0.00,,,0.00,Wunderground v.1.15,2013-01-09 03:30:00,
2013-01-08 21:35:00,58.6,57.8,30.07,East,89,4.0,8.0,97,0.00,,,0.00,Wunderground v.1.15,2013-01-09 03:35:00,
2013-01-08 21:40:00,58.6,57.8,30.07,NE,50,2.0,7.0,97,0.00,,,0.00,Wunderground v.1.15,2013-01-09 03:40:00,
2013-01-08 21:45:00,58.6,57.8,30.07,North,353,1.0,7.0,97,0.00,,,0.00,Wunderground v.1.15,2013-01-09 03:45:00,
2013-01-08 21:50:00,58.6,57.8,30.07,ENE,72,2.0,5.0,97,0.00,,,0.00,Wunderground v.1.15,2013-01-09 03:50:00,
2013-01-08 21:56:00,58.7,57.9,30.07,NE,51,3.0,7.0,97,0.00,,,0.00,Wunderground v.1.15,2013-01-09 03:56:00,
2013-01-08 22:01:00,58.7,57.9,30.06,ENE,67,2.0,5.0,97,0.00,,,0.00,Wunderground v.1.15,2013-01-09 04:01:00,
2013-01-08 22:06:00,58.7,57.9,30.05,NE,42,2.0,7.0,97,0.00,,,0.00,Wunderground v.1.15,2013-01-09 04:06:00,
2013-01-08 22:11:00,58.8,58.0,30.06,NE,41,1.0,6.0,97,0.00,,,0.00,Wunderground v.1.15,2013-01-09 04:11:00,
2013-01-08 22:16:00,58.8,58.0,30.06,ENE,75,2.0,6.0,97,0.00,,,0.00,Wunderground v.1.15,2013-01-09 04:16:00,
2013-01-08 22:21:00,58.8,58.0,30.06,ENE,63,1.0,3.0,97,0.00,,,0.00,Wunderground v.1.15,2013-01-09 04:21:00,
2013-01-08 22:26:00,58.8,58.0,30.06,ENE,64,2.0,5.0,97,0.00,,,0.00,Wunderground v.1.15,2013-01-09 04:26:00,
2013-01-08 22:31:00,58.8,58.0,30.06,ENE,74,6.0,6.0,97,0.00,,,0.00,Wunderground v.1.15,2013-01-09 04:31:00,
2013-01-08 22:36:00,58.8,58.0,30.06,ENE,67,3.0,7.0,97,0.00,,,0.00,Wunderground v.1.15,2013-01-09 04:36:00,
2013-01-08 22:41:00,58.8,58.0,30.07,ENE,63,2.0,3.0,97,0.00,,,0.00,Wunderground v.1.15,2013-01-09 04:41:00,
2013-01-08 22:46:00,58.8,58.0,30.07,East,89,2.0,4.0,97,0.00,,,0.00,Wunderground v.1.15,2013-01-09 04:46:00,
2013-01-08 22:51:00,58.8,58.0,30.06,NNE,27,2.0,5.0,97,0.00,,,0.00,Wunderground v.1.15,2013-01-09 04:51:00,
2013-01-08 22:56:00,58.7,57.9,30.05,East,96,2.0,6.0,97,0.00,,,0.00,Wunderground v.1.15,2013-01-09 04:56:00,
2013-01-08 23:00:00,58.7,57.9,30.04,ENE,77,2.0,5.0,97,0.00,,,0.00,Wunderground v.1.15,2013-01-09 05:00:00,
2013-01-08 23:01:00,58.7,57.9,30.04,ENE,61,1.0,5.0,97,0.00,,,0.00,Wunderground v.1.15,2013-01-09 05:01:00,
2013-01-08 23:02:00,58.7,57.9,30.05,NE,46,1.0,5.0,97,0.00,,,0.00,Wunderground v.1.15,2013-01-09 05:02:00,
2013-01-08 23:03:00,58.7,57.9,30.05,ENE,60,2.0,5.0,97,0.00,,,0.00,Wunderground v.1.15,2013-01-09 05:03:00,
2013-01-08 23:08:00,58.7,57.9,30.06,ENE,71,1.0,5.0,97,0.00,,,0.00,Wunderground v.1.15,2013-01-09 05:08:00,
2013-01-08 23:13:00,58.7,57.9,30.06,East,93,4.0,6.0,97,0.00,,,0.00,Wunderground v.1.15,2013-01-09 05:13:00,
2013-01-08 23:18:00,58.7,57.9,30.07,NE,55,2.0,6.0,97,0.00,,,0.00,Wunderground v.1.15,2013-01-09 05:18:00,
2013-01-08 23:23:00,58.7,57.9,30.06,NE,53,1.0,7.0,97,0.00,,,0.00,Wunderground v.1.15,2013-01-09 05:23:00,
2013-01-08 23:28:00,58.7,57.9,30.06,East,80,1.0,7.0,97,0.00,,,0.00,Wunderground v.1.15,2013-01-09 05:28:00,
2013-01-08 23:33:00,58.6,57.8,30.07,East,91,3.0,4.0,97,0.00,,,0.00,Wunderground v.1.15,2013-01-09 05:33:00,
2013-01-08 23:38:00,58.7,57.9,30.07,ENE,74,2.0,4.0,97,0.00,,,0.00,Wunderground v.1.15,2013-01-09 05:38:00,
2013-01-08 23:43:00,58.7,57.9,30.07,East,81,1.0,5.0,97,0.00,,,0.00,Wunderground v.1.15,2013-01-09 05:43:00,
2013-01-08 23:48:00,58.7,57.9,30.08,East,82,1.0,6.0,97,0.00,,,0.00,Wunderground v.1.15,2013-01-09 05:48:00,
2013-01-08 23:53:00,58.7,57.9,30.08,NE,39,2.0,5.0,97,0.00,,,0.00,Wunderground v.1.15,2013-01-09 05:53:00,
2013-01-08 23:58:00,58.7,57.9,30.07,NE,52,2.0,6.0,97,0.00,,,0.00,Wunderground v.1.15,2013-01-09 05:58:00,